• In Schweiz
  • Länderverzeichnis
  • Für 7 Tage
  • Wassertemperatur
  • Satellitenkarten
  • Wetterkarte
  • Widgets
  • user-avatar
    Anmelden

    Stündliche Wetter Oslo

    Heute, 23 Juli, Montag

    Zeit Temperatur Niederschläge Wind Luftdruck Luftfeuchtigkeit
    00:00 +16°C° 0 mm 1 m/S 747 mmHg 87%
    01:00 +16°C° 0 mm 1 m/S 747 mmHg 90%
    02:00 +15°C° 0 mm 1 m/S 748 mmHg 90%
    03:00 +15°C° 0 mm 1 m/S 748 mmHg 91%
    04:00 +15°C° 0 mm 1 m/S 748 mmHg 91%
    05:00 +18°C° 0 mm 1 m/S 748 mmHg 82%
    06:00 +20°C° 0 mm 1 m/S 748 mmHg 73%
    07:00 +22°C° 0 mm 1 m/S 748 mmHg 64%
    08:00 +22°C° 0 mm 0 m/S 748 mmHg 56%
    09:00 +25°C° 0 mm 0 m/S 748 mmHg 48%
    10:00 +27°C° 0 mm 0 m/S 748 mmHg 39%
    11:00 +30°C° 0 mm 1 m/S 748 mmHg 36%
    12:00 +31°C° 0 mm 1 m/S 748 mmHg 33%
    13:00 +32°C° 0 mm 1 m/S 748 mmHg 30%
    14:00 +32°C° 0 mm 2 m/S 748 mmHg 30%
    15:00 +32°C° 0 mm 2 m/S 748 mmHg 30%
    16:00 +32°C° 0 mm 2 m/S 748 mmHg 31%
    17:00 +30°C° 0 mm 2 m/S 748 mmHg 36%
    18:00 +29°C° 0 mm 2 m/S 748 mmHg 42%
    19:00 +28°C° 0 mm 2 m/S 748 mmHg 47%
    20:00 +25°C° 0 mm 2 m/S 749 mmHg 57%
    21:00 +23°C° 0 mm 2 m/S 749 mmHg 67%
    22:00 +21°C° 0 mm 1 m/S 749 mmHg 77%
    23:00 +20°C° 0 mm 1 m/S 749 mmHg 81%

    Morgen, 24 Juli, Dienstag

    Zeit Temperatur Niederschläge Wind Luftdruck Luftfeuchtigkeit
    00:00 +19°C° 0 mm 1 m/S 749 mmHg 85%
    01:00 +19°C° 0 mm 1 m/S 750 mmHg 89%
    02:00 +19°C° 0 mm 1 m/S 750 mmHg 91%
    03:00 +18°C° 0 mm 1 m/S 750 mmHg 92%
    04:00 +16°C° 0 mm 0 m/S 750 mmHg 93%
    05:00 +18°C° 0 mm 0 m/S 750 mmHg 85%
    06:00 +20°C° 0 mm 0 m/S 750 mmHg 77%
    07:00 +22°C° 0 mm 0 m/S 750 mmHg 69%
    08:00 +26°C° 0 mm 1 m/S 750 mmHg 61%
    09:00 +27°C° 0 mm 1 m/S 750 mmHg 52%
    10:00 +29°C° 0 mm 2 m/S 750 mmHg 44%
    11:00 +30°C° 0 mm 2 m/S 750 mmHg 41%
    12:00 +31°C° 0 mm 3 m/S 750 mmHg 37%
    13:00 +33°C° 0 mm 3 m/S 750 mmHg 34%
    14:00 +33°C° 0 mm 4 m/S 750 mmHg 35%
    15:00 +33°C° 0 mm 4 m/S 749 mmHg 37%
    16:00 +33°C° 0 mm 4 m/S 749 mmHg 38%
    17:00 +32°C° 0 mm 4 m/S 749 mmHg 43%
    18:00 +30°C° 0 mm 4 m/S 750 mmHg 48%
    19:00 +29°C° 0 mm 4 m/S 750 mmHg 53%
    20:00 +27°C° 0 mm 3 m/S 750 mmHg 60%
    21:00 +25°C° 0 mm 3 m/S 750 mmHg 67%
    22:00 +22°C° 0 mm 3 m/S 750 mmHg 74%
    23:00 +21°C° 0 mm 2 m/S 750 mmHg 79%

    übermorgen, 25 Juli, Mittwoch

    Zeit Temperatur Niederschläge Wind Luftdruck Luftfeuchtigkeit
    00:00 +20°C° 0 mm 2 m/S 751 mmHg 84%
    01:00 +19°C° 0 mm 2 m/S 751 mmHg 89%
    02:00 +19°C° 0 mm 2 m/S 751 mmHg 91%
    03:00 +18°C° 0 mm 2 m/S 751 mmHg 94%
    04:00 +18°C° 0 mm 2 m/S 751 mmHg 97%
    05:00 +19°C° 0 mm 2 m/S 751 mmHg 89%
    06:00 +21°C° 0 mm 2 m/S 751 mmHg 81%
    07:00 +23°C° 0 mm 2 m/S 751 mmHg 73%
    08:00 +25°C° 0 mm 2 m/S 751 mmHg 64%
    09:00 +27°C° 0 mm 2 m/S 752 mmHg 55%
    10:00 +29°C° 0 mm 2 m/S 752 mmHg 45%
    11:00 +29°C° 0 mm 3 m/S 752 mmHg 42%
    12:00 +30°C° 0 mm 3 m/S 752 mmHg 39%
    13:00 +32°C° 0 mm 4 m/S 752 mmHg 36%
    14:00 +32°C° 0 mm 4 m/S 752 mmHg 37%
    15:00 +32°C° 0 mm 4 m/S 752 mmHg 37%
    16:00 +30°C° 0 mm 4 m/S 752 mmHg 37%
    17:00 +29°C° 0 mm 4 m/S 752 mmHg 42%
    18:00 +28°C° 0 mm 3 m/S 752 mmHg 47%
    19:00 +27°C° 0 mm 3 m/S 752 mmHg 51%
    20:00 +25°C° 0 mm 3 m/S 752 mmHg 60%
    21:00 +23°C° 0 mm 2 m/S 753 mmHg 69%
    22:00 +20°C° 0 mm 2 m/S 753 mmHg 77%
    23:00 +20°C° 0 mm 1 m/S 753 mmHg 80%

    26 Juli, Donnerstag

    Zeit Temperatur Niederschläge Wind Luftdruck Luftfeuchtigkeit
    00:00 +19°C° 0 mm 1 m/S 753 mmHg 83%
    01:00 +18°C° 0 mm 1 m/S 754 mmHg 86%
    02:00 +18°C° 0 mm 1 m/S 754 mmHg 86%
    03:00 +18°C° 0 mm 1 m/S 754 mmHg 87%
    04:00 +16°C° 0 mm 1 m/S 754 mmHg 87%
    05:00 +19°C° 0 mm 1 m/S 755 mmHg 78%
    06:00 +21°C° 0 mm 1 m/S 755 mmHg 69%
    07:00 +23°C° 0 mm 1 m/S 755 mmHg 61%
    08:00 +25°C° 0 mm 1 m/S 755 mmHg 53%
    09:00 +27°C° 0 mm 1 m/S 755 mmHg 46%
    10:00 +29°C° 0 mm 1 m/S 755 mmHg 39%
    11:00 +31°C° 0 mm 1 m/S 755 mmHg 36%
    12:00 +32°C° 0 mm 1 m/S 755 mmHg 33%
    13:00 +33°C° 0 mm 1 m/S 755 mmHg 31%
    14:00 +33°C° 0 mm 1 m/S 755 mmHg 30%
    15:00 +33°C° 0 mm 1 m/S 755 mmHg 30%
    16:00 +34°C° 0 mm 2 m/S 755 mmHg 30%
    17:00 +31°C° 0 mm 2 m/S 755 mmHg 34%
    18:00 +30°C° 0 mm 2 m/S 756 mmHg 38%
    19:00 +29°C° 0 mm 2 m/S 756 mmHg 43%
    20:00 +26°C° 0 mm 1 m/S 756 mmHg 51%
    21:00 +23°C° 0 mm 1 m/S 756 mmHg 59%
    22:00 +21°C° 0 mm 1 m/S 757 mmHg 68%
    23:00 +18°C° 0 mm 0 m/S 757 mmHg 70%

    27 Juli, Freitag

    Zeit Temperatur Niederschläge Wind Luftdruck Luftfeuchtigkeit
    00:00 +17°C° 0 mm 0 m/S 757 mmHg 72%
    01:00 +17°C° 0 mm 0 m/S 757 mmHg 75%
    02:00 +16°C° 0 mm 0 m/S 758 mmHg 76%
    03:00 +16°C° 0 mm 0 m/S 758 mmHg 78%
    04:00 +15°C° 0 mm 0 m/S 758 mmHg 79%
    05:00 +18°C° 0 mm 0 m/S 758 mmHg 72%
    06:00 +20°C° 0 mm 0 m/S 758 mmHg 65%
    07:00 +24°C° 0 mm 1 m/S 758 mmHg 57%
    08:00 +26°C° 0 mm 1 m/S 758 mmHg 50%
    09:00 +28°C° 0 mm 1 m/S 758 mmHg 44%
    10:00 +30°C° 0 mm 1 m/S 758 mmHg 37%
    11:00 +31°C° 0 mm 2 m/S 758 mmHg 34%
    12:00 +32°C° 0 mm 2 m/S 758 mmHg 31%
    13:00 +34°C° 0 mm 2 m/S 757 mmHg 28%
    14:00 +34°C° 0 mm 2 m/S 757 mmHg 28%
    15:00 +35°C° 0 mm 2 m/S 757 mmHg 28%
    16:00 +35°C° 0 mm 2 m/S 757 mmHg 28%
    17:00 +34°C° 0 mm 2 m/S 757 mmHg 33%
    18:00 +32°C° 0 mm 2 m/S 757 mmHg 38%
    19:00 +31°C° 0 mm 1 m/S 757 mmHg 43%
    20:00 +29°C° 0 mm 1 m/S 757 mmHg 48%
    21:00 +27°C° 0 mm 1 m/S 757 mmHg 54%
    22:00 +25°C° 0 mm 1 m/S 758 mmHg 60%
    23:00 +24°C° 0,1 mm 2 m/S 758 mmHg 65%

    28 Juli, Samstag

    Zeit Temperatur Niederschläge Wind Luftdruck Luftfeuchtigkeit
    00:00 +24°C° 0,1 mm 2 m/S 758 mmHg 70%
    01:00 +23°C° 0,1 mm 2 m/S 758 mmHg 75%
    02:00 +21°C° 0 mm 2 m/S 758 mmHg 79%
    03:00 +20°C° 0 mm 2 m/S 758 mmHg 84%
    04:00 +19°C° 0 mm 2 m/S 758 mmHg 88%
    05:00 +20°C° 0 mm 2 m/S 757 mmHg 84%
    06:00 +21°C° 0 mm 2 m/S 757 mmHg 80%
    07:00 +21°C° 0 mm 2 m/S 757 mmHg 76%
    08:00 +24°C° 0,1 mm 3 m/S 757 mmHg 70%
    09:00 +26°C° 0,1 mm 3 m/S 756 mmHg 64%
    10:00 +27°C° 0,1 mm 3 m/S 756 mmHg 58%
    11:00 +28°C° 0,3 mm 3 m/S 756 mmHg 57%
    12:00 +29°C° 0,3 mm 4 m/S 755 mmHg 55%
    13:00 +30°C° 0,3 mm 4 m/S 754 mmHg 53%
    14:00 +29°C° 0,3 mm 4 m/S 754 mmHg 54%
    15:00 +29°C° 0,3 mm 4 m/S 754 mmHg 54%
    16:00 +29°C° 0,3 mm 3 m/S 754 mmHg 54%
    17:00 +28°C° 0,5 mm 3 m/S 753 mmHg 61%
    18:00 +27°C° 0,5 mm 3 m/S 753 mmHg 67%
    19:00 +26°C° 0,5 mm 3 m/S 753 mmHg 73%
    20:00 +25°C° 1,1 mm 2 m/S 753 mmHg 80%
    21:00 +23°C° 1,1 mm 2 m/S 753 mmHg 87%
    22:00 +21°C° 1,1 mm 2 m/S 754 mmHg 93%
    23:00 +21°C° 0,8 mm 2 m/S 754 mmHg 95%
    Mehr zeigen